Time,TemperatureF,DewpointF,PressureIn,WindDirection,WindDirectionDegrees,WindSpeedMPH,WindSpeedGustMPH,Humidity,HourlyPrecipIn,Conditions,Clouds,dailyrainin,SoftwareType,DateUTC
2013-04-08 00:00:00,47.9,42.3,29.88,North,354,0.0,0.0,81,0.00,,,0.00,Wunderground v.1.15,2013-04-08 04:00:00,
2013-04-08 00:10:00,47.3,40.8,29.88,North,353,0.0,0.0,78,0.00,,,0.00,Wunderground v.1.15,2013-04-08 04:10:00,
2013-04-08 00:20:00,47.3,40.8,29.87,North,359,0.0,0.0,78,0.00,,,0.00,Wunderground v.1.15,2013-04-08 04:20:00,
2013-04-08 00:30:00,47.7,41.2,29.87,North,359,0.0,0.0,78,0.00,,,0.00,Wunderground v.1.15,2013-04-08 04:30:00,
2013-04-08 00:40:00,47.7,41.2,29.87,NNE,24,1.0,1.0,78,0.00,,,0.00,Wunderground v.1.15,2013-04-08 04:40:00,
2013-04-08 00:50:00,48.5,42.0,29.86,North,8,1.0,1.0,78,0.00,,,0.00,Wunderground v.1.15,2013-04-08 04:50:00,
2013-04-08 01:00:00,49.4,41.5,29.87,North,10,1.0,1.0,74,0.00,,,0.00,Wunderground v.1.15,2013-04-08 05:00:00,
2013-04-08 01:10:00,49.4,41.5,29.87,North,11,0.0,0.0,74,0.00,,,0.00,Wunderground v.1.15,2013-04-08 05:10:00,
2013-04-08 01:20:00,49.9,41.9,29.86,North,7,1.0,1.0,74,0.00,,,0.00,Wunderground v.1.15,2013-04-08 05:20:00,
2013-04-08 01:30:00,50.2,41.2,29.86,North,359,1.0,1.0,71,0.00,,,0.00,Wunderground v.1.15,2013-04-08 05:30:00,
2013-04-08 01:40:00,50.4,41.3,29.86,NNE,16,0.0,2.0,71,0.00,,,0.00,Wunderground v.1.15,2013-04-08 05:40:00,
2013-04-08 01:50:00,50.4,41.3,29.86,North,352,1.0,1.0,71,0.00,,,0.00,Wunderground v.1.15,2013-04-08 05:50:00,
2013-04-08 02:00:00,50.1,41.1,29.85,North,354,0.0,0.0,71,0.00,,,0.00,Wunderground v.1.15,2013-04-08 06:00:00,
2013-04-08 02:10:00,50.1,41.1,29.85,North,354,0.0,0.0,71,0.00,,,0.00,Wunderground v.1.15,2013-04-08 06:10:00,
2013-04-08 02:30:00,48.3,39.3,29.86,North,354,0.0,0.0,71,0.00,,,0.00,Wunderground v.1.15,2013-04-08 06:30:00,
2013-04-08 02:40:00,46.4,37.5,29.86,North,354,0.0,0.0,71,0.00,,,0.00,Wunderground v.1.15,2013-04-08 06:40:00,
2013-04-08 02:50:00,46.2,37.3,29.86,North,354,0.0,0.0,71,0.00,,,0.00,Wunderground v.1.15,2013-04-08 06:50:00,
2013-04-08 03:00:00,45.2,36.4,29.86,North,354,0.0,0.0,71,0.00,,,0.00,Wunderground v.1.15,2013-04-08 07:00:00,
2013-04-08 03:10:00,44.2,35.4,29.86,North,354,0.0,0.0,71,0.00,,,0.00,Wunderground v.1.15,2013-04-08 07:10:00,
2013-04-08 03:20:00,44.2,35.4,29.86,North,354,0.0,0.0,71,0.00,,,0.00,Wunderground v.1.15,2013-04-08 07:20:00,
2013-04-08 03:30:00,43.9,35.1,29.86,North,354,0.0,0.0,71,0.00,,,0.00,Wunderground v.1.15,2013-04-08 07:30:00,
2013-04-08 03:40:00,43.9,35.1,29.86,North,354,0.0,0.0,71,0.00,,,0.00,Wunderground v.1.15,2013-04-08 07:40:00,
2013-04-08 03:50:00,43.1,34.3,29.86,North,354,0.0,0.0,71,0.00,,,0.00,Wunderground v.1.15,2013-04-08 07:50:00,
2013-04-08 04:00:00,43.1,34.3,29.86,North,354,0.0,0.0,71,0.00,,,0.00,Wunderground v.1.15,2013-04-08 08:00:00,
2013-04-08 04:10:00,42.6,33.9,29.86,North,354,0.0,0.0,71,0.00,,,0.00,Wunderground v.1.15,2013-04-08 08:10:00,
2013-04-08 04:20:00,42.1,33.4,29.86,North,354,0.0,0.0,71,0.00,,,0.00,Wunderground v.1.15,2013-04-08 08:20:00,
2013-04-08 04:30:00,41.9,33.2,29.86,North,354,0.0,0.0,71,0.00,,,0.00,Wunderground v.1.15,2013-04-08 08:30:00,
2013-04-08 04:40:00,41.6,32.9,29.86,North,354,0.0,0.0,71,0.00,,,0.00,Wunderground v.1.15,2013-04-08 08:40:00,
2013-04-08 04:50:00,41.3,32.6,29.86,North,354,0.0,0.0,71,0.00,,,0.00,Wunderground v.1.15,2013-04-08 08:50:00,
2013-04-08 05:00:00,41.3,32.6,29.86,North,354,0.0,0.0,71,0.00,,,0.00,Wunderground v.1.15,2013-04-08 09:00:00,
2013-04-08 05:10:00,41.1,32.4,29.86,North,354,0.0,0.0,71,0.00,,,0.00,Wunderground v.1.15,2013-04-08 09:10:00,
2013-04-08 05:20:00,41.1,32.4,29.86,North,354,0.0,0.0,71,0.00,,,0.00,Wunderground v.1.15,2013-04-08 09:20:00,
2013-04-08 05:30:00,40.9,32.2,29.87,North,354,0.0,0.0,71,0.00,,,0.00,Wunderground v.1.15,2013-04-08 09:30:00,
2013-04-08 05:40:00,40.8,32.1,29.87,North,354,0.0,0.0,71,0.00,,,0.00,Wunderground v.1.15,2013-04-08 09:40:00,
2013-04-08 05:50:00,40.8,32.1,29.87,North,354,0.0,0.0,71,0.00,,,0.00,Wunderground v.1.15,2013-04-08 09:50:00,
2013-04-08 06:00:00,40.6,31.9,29.88,North,354,0.0,0.0,71,0.00,,,0.00,Wunderground v.1.15,2013-04-08 10:00:00,
2013-04-08 06:10:00,40.6,31.9,29.88,North,354,0.0,0.0,71,0.00,,,0.00,Wunderground v.1.15,2013-04-08 10:10:00,
2013-04-08 06:20:00,40.6,31.9,29.89,North,354,0.0,0.0,71,0.00,,,0.00,Wunderground v.1.15,2013-04-08 10:20:00,
2013-04-08 06:30:00,40.6,31.9,29.90,North,354,0.0,0.0,71,0.00,,,0.00,Wunderground v.1.15,2013-04-08 10:30:00,
2013-04-08 06:40:00,40.6,31.9,29.90,North,354,0.0,0.0,71,0.00,,,0.00,Wunderground v.1.15,2013-04-08 10:40:00,
2013-04-08 07:00:00,40.5,31.8,29.91,North,354,0.0,0.0,71,0.00,,,0.00,Wunderground v.1.15,2013-04-08 11:00:00,
2013-04-08 07:10:00,40.8,32.1,29.91,North,354,0.0,0.0,71,0.00,,,0.00,Wunderground v.1.15,2013-04-08 11:10:00,
2013-04-08 07:20:00,40.8,32.1,29.92,North,354,0.0,0.0,71,0.00,,,0.00,Wunderground v.1.15,2013-04-08 11:20:00,
2013-04-08 07:30:00,41.8,33.1,29.92,North,354,0.0,0.0,71,0.00,,,0.00,Wunderground v.1.15,2013-04-08 11:30:00,
2013-04-08 07:40:00,41.8,33.1,29.92,North,354,0.0,0.0,71,0.00,,,0.00,Wunderground v.1.15,2013-04-08 11:40:00,
2013-04-08 07:50:00,42.8,40.1,29.93,North,354,0.0,0.0,90,0.00,,,0.00,Wunderground v.1.15,2013-04-08 11:50:00,
2013-04-08 08:00:00,43.5,40.8,29.93,North,354,0.0,0.0,90,0.00,,,0.00,Wunderground v.1.15,2013-04-08 12:00:00,
2013-04-08 08:20:00,44.1,41.4,29.94,North,354,0.0,0.0,90,0.00,,,0.00,Wunderground v.1.15,2013-04-08 12:20:00,
2013-04-08 08:30:00,45.1,42.3,29.94,North,354,0.0,0.0,90,0.00,,,0.00,Wunderground v.1.15,2013-04-08 12:30:00,
2013-04-08 08:40:00,46.2,43.4,29.94,North,354,0.0,0.0,90,0.00,,,0.00,Wunderground v.1.15,2013-04-08 12:40:00,
2013-04-08 08:50:00,46.2,43.4,29.94,SE,127,0.0,0.0,90,0.00,,,0.00,Wunderground v.1.15,2013-04-08 12:50:00,
2013-04-08 09:00:00,48.3,45.5,29.93,SE,127,0.0,0.0,90,0.00,,,0.00,Wunderground v.1.15,2013-04-08 13:00:00,
2013-04-08 09:10:00,48.3,45.5,29.93,SSE,158,0.0,0.0,90,0.00,,,0.00,Wunderground v.1.15,2013-04-08 13:10:00,
2013-04-08 09:20:00,50.2,47.4,29.93,SSE,158,0.0,0.0,90,0.00,,,0.00,Wunderground v.1.15,2013-04-08 13:20:00,
2013-04-08 09:40:00,53.2,50.3,29.93,SSW,196,0.0,0.0,90,0.00,,,0.00,Wunderground v.1.15,2013-04-08 13:40:00,
2013-04-08 09:50:00,53.2,50.3,29.93,NNE,14,0.0,0.0,90,0.00,,,0.00,Wunderground v.1.15,2013-04-08 13:50:00,
2013-04-08 10:10:00,54.7,51.8,29.94,South,182,1.0,1.0,90,0.00,,,0.00,Wunderground v.1.15,2013-04-08 14:10:00,
2013-04-08 10:20:00,54.7,51.8,29.95,South,182,1.0,1.0,90,0.00,,,0.00,Wunderground v.1.15,2013-04-08 14:20:00,
2013-04-08 10:30:00,54.7,51.8,29.95,West,274,0.0,1.0,90,0.00,,,0.00,Wunderground v.1.15,2013-04-08 14:30:00,
2013-04-08 10:40:00,58.0,55.1,29.95,SW,234,0.0,1.0,90,0.00,,,0.00,Wunderground v.1.15,2013-04-08 14:40:00,
2013-04-08 10:50:00,58.3,55.4,29.95,SW,217,1.0,1.0,90,0.00,,,0.00,Wunderground v.1.15,2013-04-08 14:50:00,
2013-04-08 11:00:00,58.4,55.5,29.94,ESE,119,1.0,2.0,90,0.00,,,0.00,Wunderground v.1.15,2013-04-08 15:00:00,
2013-04-08 11:10:00,58.4,55.5,29.94,WSW,248,0.0,0.0,90,0.00,,,0.00,Wunderground v.1.15,2013-04-08 15:10:00,
2013-04-08 11:20:00,58.4,55.5,29.95,SSE,164,0.0,0.0,90,0.00,,,0.00,Wunderground v.1.15,2013-04-08 15:20:00,
2013-04-08 11:30:00,58.4,55.5,29.95,SSW,198,0.0,0.0,90,0.00,,,0.00,Wunderground v.1.15,2013-04-08 15:30:00,
2013-04-08 11:40:00,58.4,55.5,29.95,WNW,291,0.0,0.0,90,0.00,,,0.00,Wunderground v.1.15,2013-04-08 15:40:00,
2013-04-08 11:50:00,61.8,58.8,29.94,North,6,0.0,0.0,90,0.00,,,0.00,Wunderground v.1.15,2013-04-08 15:50:00,
2013-04-08 12:00:00,62.0,59.0,29.93,SW,224,0.0,0.0,90,0.00,,,0.00,Wunderground v.1.15,2013-04-08 16:00:00,
2013-04-08 12:10:00,62.6,59.6,29.93,East,96,1.0,3.0,90,0.00,,,0.00,Wunderground v.1.15,2013-04-08 16:10:00,
2013-04-08 12:20:00,62.3,59.3,29.94,East,85,0.0,0.0,90,0.00,,,0.00,Wunderground v.1.15,2013-04-08 16:20:00,
2013-04-08 12:30:00,62.3,59.3,29.93,ESE,119,1.0,1.0,90,0.00,,,0.00,Wunderground v.1.15,2013-04-08 16:30:00,
2013-04-08 12:40:00,63.5,60.5,29.93,SW,234,0.0,0.0,90,0.00,,,0.00,Wunderground v.1.15,2013-04-08 16:40:00,
2013-04-08 12:50:00,63.7,60.7,29.93,SSE,151,1.0,1.0,90,0.00,,,0.00,Wunderground v.1.15,2013-04-08 16:50:00,
2013-04-08 13:00:00,63.7,60.7,29.92,South,182,1.0,1.0,90,0.00,,,0.00,Wunderground v.1.15,2013-04-08 17:00:00,
2013-04-08 13:10:00,63.7,60.7,29.92,WSW,251,1.0,1.0,90,0.00,,,0.00,Wunderground v.1.15,2013-04-08 17:10:00,
2013-04-08 13:20:00,63.7,60.7,29.92,ESE,114,1.0,1.0,90,0.00,,,0.00,Wunderground v.1.15,2013-04-08 17:20:00,
2013-04-08 13:30:00,67.1,64.1,29.91,SE,140,1.0,1.0,90,0.00,,,0.00,Wunderground v.1.15,2013-04-08 17:30:00,
2013-04-08 13:40:00,67.9,64.9,29.91,ENE,71,0.0,0.0,90,0.00,,,0.00,Wunderground v.1.15,2013-04-08 17:40:00,
2013-04-08 13:50:00,67.9,64.9,29.91,SSE,152,1.0,1.0,90,0.00,,,0.00,Wunderground v.1.15,2013-04-08 17:50:00,
2013-04-08 14:00:00,67.9,64.9,29.90,ESE,107,1.0,1.0,90,0.00,,,0.00,Wunderground v.1.15,2013-04-08 18:00:00,
2013-04-08 14:10:00,68.8,34.3,29.90,ENE,75,0.0,0.0,28,0.00,,,0.00,Wunderground v.1.15,2013-04-08 18:10:00,
2013-04-08 14:20:00,69.9,37.9,29.90,NNE,20,0.0,1.0,31,0.00,,,0.00,Wunderground v.1.15,2013-04-08 18:20:00,
2013-04-08 14:30:00,69.4,34.9,29.91,North,1,1.0,1.0,28,0.00,,,0.00,Wunderground v.1.15,2013-04-08 18:30:00,
2013-04-08 14:40:00,69.6,34.1,29.91,SE,126,1.0,1.0,27,0.00,,,0.00,Wunderground v.1.15,2013-04-08 18:40:00,
2013-04-08 14:50:00,69.9,34.4,29.90,East,99,0.0,1.0,27,0.00,,,0.00,Wunderground v.1.15,2013-04-08 18:50:00,
2013-04-08 15:00:00,70.8,35.1,29.89,SE,124,0.0,0.0,27,0.00,,,0.00,Wunderground v.1.15,2013-04-08 19:00:00,
2013-04-08 15:10:00,71.5,35.7,29.89,NE,47,0.0,0.0,27,0.00,,,0.00,Wunderground v.1.15,2013-04-08 19:10:00,
2013-04-08 15:20:00,71.5,35.7,29.89,ESE,123,0.0,0.0,27,0.00,,,0.00,Wunderground v.1.15,2013-04-08 19:20:00,
2013-04-08 15:30:00,72.3,34.5,29.88,SE,137,0.0,0.0,25,0.00,,,0.00,Wunderground v.1.15,2013-04-08 19:30:00,
2013-04-08 15:50:00,72.3,33.5,29.87,North,359,1.0,1.0,24,0.00,,,0.00,Wunderground v.1.15,2013-04-08 19:50:00,
2013-04-08 16:00:00,72.3,33.5,29.86,North,0,0.0,0.0,24,0.00,,,0.00,Wunderground v.1.15,2013-04-08 20:00:00,
2013-04-08 16:10:00,72.3,33.5,29.86,ENE,71,1.0,1.0,24,0.00,,,0.00,Wunderground v.1.15,2013-04-08 20:10:00,
2013-04-08 16:20:00,73.5,34.5,29.85,SE,140,1.0,1.0,24,0.00,,,0.00,Wunderground v.1.15,2013-04-08 20:20:00,
2013-04-08 16:30:00,73.5,35.5,29.85,North,11,2.0,6.0,25,0.00,,,0.00,Wunderground v.1.15,2013-04-08 20:30:00,
2013-04-08 16:50:00,72.1,34.3,29.85,NNE,31,3.0,3.0,25,0.00,,,0.00,Wunderground v.1.15,2013-04-08 20:50:00,
2013-04-08 17:00:00,71.6,33.9,29.85,ENE,66,3.0,3.0,25,0.00,,,0.00,Wunderground v.1.15,2013-04-08 21:00:00,
2013-04-08 17:10:00,72.1,34.3,29.85,NNW,344,1.0,1.0,25,0.00,,,0.00,Wunderground v.1.15,2013-04-08 21:10:00,
2013-04-08 17:20:00,72.0,37.1,29.85,ESE,102,2.0,5.0,28,0.00,,,0.00,Wunderground v.1.15,2013-04-08 21:20:00,
2013-04-08 17:30:00,71.1,36.3,29.85,NNE,17,2.0,2.0,28,0.00,,,0.00,Wunderground v.1.15,2013-04-08 21:30:00,
2013-04-08 17:40:00,70.6,37.6,29.85,NW,326,1.0,2.0,30,0.00,,,0.00,Wunderground v.1.15,2013-04-08 21:40:00,
2013-04-08 17:50:00,70.1,38.0,29.85,NE,51,1.0,7.0,31,0.00,,,0.00,Wunderground v.1.15,2013-04-08 21:50:00,
2013-04-08 18:00:00,70.1,38.0,29.85,North,0,2.0,5.0,31,0.00,,,0.00,Wunderground v.1.15,2013-04-08 22:00:00,
2013-04-08 18:20:00,68.1,38.7,29.86,North,0,4.0,4.0,34,0.00,,,0.00,Wunderground v.1.15,2013-04-08 22:20:00,
2013-04-08 18:30:00,66.8,37.5,29.87,NNE,13,3.0,3.0,34,0.00,,,0.00,Wunderground v.1.15,2013-04-08 22:30:00,
2013-04-08 18:40:00,65.2,36.1,29.87,NE,45,5.0,5.0,34,0.00,,,0.00,Wunderground v.1.15,2013-04-08 22:40:00,
2013-04-08 18:50:00,64.7,38.5,29.86,NNE,14,2.0,6.0,38,0.00,,,0.00,Wunderground v.1.15,2013-04-08 22:50:00,
2013-04-08 19:00:00,64.3,39.4,29.87,NNE,32,1.0,1.0,40,0.00,,,0.00,Wunderground v.1.15,2013-04-08 23:00:00,
2013-04-08 19:10:00,63.9,39.7,29.87,NNW,340,1.0,1.0,41,0.00,,,0.00,Wunderground v.1.15,2013-04-08 23:10:00,
2013-04-08 19:20:00,63.1,39.6,29.88,North,11,1.0,1.0,42,0.00,,,0.00,Wunderground v.1.15,2013-04-08 23:20:00,
2013-04-08 19:30:00,62.3,39.5,29.88,North,8,1.0,5.0,43,0.00,,,0.00,Wunderground v.1.15,2013-04-08 23:30:00,
2013-04-08 19:40:00,61.3,39.8,29.88,North,0,2.0,3.0,45,0.00,,,0.00,Wunderground v.1.15,2013-04-08 23:40:00,
2013-04-08 19:50:00,60.5,39.6,29.88,ENE,76,1.0,1.0,46,0.00,,,0.00,Wunderground v.1.15,2013-04-08 23:50:00,
2013-04-08 20:00:00,59.9,39.1,29.88,NNE,18,1.0,2.0,46,0.00,,,0.00,Wunderground v.1.15,2013-04-09 00:00:00,
2013-04-08 20:10:00,59.6,39.9,29.88,North,0,1.0,1.0,48,0.00,,,0.00,Wunderground v.1.15,2013-04-09 00:10:00,
2013-04-08 20:20:00,59.3,40.1,29.88,NNW,347,0.0,0.0,49,0.00,,,0.00,Wunderground v.1.15,2013-04-09 00:20:00,
2013-04-08 20:30:00,58.7,39.6,29.88,NNW,347,0.0,0.0,49,0.00,,,0.00,Wunderground v.1.15,2013-04-09 00:30:00,
2013-04-08 20:40:00,58.4,39.3,29.88,NNW,346,0.0,0.0,49,0.00,,,0.00,Wunderground v.1.15,2013-04-09 00:40:00,
2013-04-08 20:50:00,58.1,40.1,29.89,NNW,346,0.0,0.0,51,0.00,,,0.00,Wunderground v.1.15,2013-04-09 00:50:00,
2013-04-08 21:00:00,58.0,39.5,29.89,NNW,346,0.0,0.0,50,0.00,,,0.00,Wunderground v.1.15,2013-04-09 01:00:00,
2013-04-08 21:10:00,57.6,39.6,29.89,North,1,0.0,0.0,51,0.00,,,0.00,Wunderground v.1.15,2013-04-09 01:10:00,
2013-04-08 21:20:00,57.5,40.0,29.89,North,0,0.0,2.0,52,0.00,,,0.00,Wunderground v.1.15,2013-04-09 01:20:00,
2013-04-08 21:30:00,57.3,39.8,29.90,North,359,1.0,1.0,52,0.00,,,0.00,Wunderground v.1.15,2013-04-09 01:30:00,
2013-04-08 21:40:00,57.2,40.7,29.90,NNE,13,0.0,1.0,54,0.00,,,0.00,Wunderground v.1.15,2013-04-09 01:40:00,
2013-04-08 21:50:00,56.7,40.7,29.89,North,3,1.0,1.0,55,0.00,,,0.00,Wunderground v.1.15,2013-04-09 01:50:00,
2013-04-08 22:00:00,56.5,41.0,29.88,WNW,299,0.0,0.0,56,0.00,,,0.00,Wunderground v.1.15,2013-04-09 02:00:00,
2013-04-08 22:10:00,56.2,41.2,29.88,WNW,295,0.0,1.0,57,0.00,,,0.00,Wunderground v.1.15,2013-04-09 02:10:00,
2013-04-08 22:20:00,56.0,41.4,29.89,WNW,288,1.0,1.0,58,0.00,,,0.00,Wunderground v.1.15,2013-04-09 02:20:00,
2013-04-08 22:30:00,55.9,41.8,29.89,SW,226,0.0,0.0,59,0.00,,,0.00,Wunderground v.1.15,2013-04-09 02:30:00,
2013-04-08 22:40:00,55.6,42.4,29.89,SW,220,0.0,0.0,61,0.00,,,0.00,Wunderground v.1.15,2013-04-09 02:40:00,
2013-04-08 22:50:00,55.4,42.6,29.89,ENE,62,0.0,0.0,62,0.00,,,0.00,Wunderground v.1.15,2013-04-09 02:50:00,
2013-04-08 23:00:00,55.3,42.5,29.88,ENE,78,0.0,1.0,62,0.00,,,0.00,Wunderground v.1.15,2013-04-09 03:00:00,
2013-04-08 23:10:00,55.1,42.7,29.88,ENE,58,0.0,1.0,63,0.00,,,0.00,Wunderground v.1.15,2013-04-09 03:10:00,
2013-04-08 23:20:00,55.0,43.0,29.87,ENE,58,0.0,0.0,64,0.00,,,0.00,Wunderground v.1.15,2013-04-09 03:20:00,
2013-04-08 23:30:00,54.8,42.9,29.87,ENE,58,0.0,0.0,64,0.00,,,0.00,Wunderground v.1.15,2013-04-09 03:30:00,
2013-04-08 23:50:00,54.5,43.0,29.87,NE,56,0.0,0.0,65,0.00,,,0.00,Wunderground v.1.15,2013-04-09 03:50:00,